Weather History for PAGK - November, 2012

Change the Weather History Date:

Monday, November 5, 2012

  Actual Average Record
Temperature  
Mean Temperature 8 °F -  
Max Temperature 15 °F 19 °F - (-1)
Min Temperature 0 °F 3 °F - (-1)
Degree Days  
Heating Degree Days 58    
Moisture  
Dew Point 8 °F    
Average Humidity 84    
Maximum Humidity 88    
Minimum Humidity 72    
Precipitation  
Precipitation 0.08 in - - ()
Snow  
Snow 0.00 in - - ()
Snow Depth 1.00 in    
Sea Level Pressure  
Sea Level Pressure 29.79 in    
Wind  
Wind Speed 2 mph (NNW)    
Max Wind Speed 8 mph    
Max Gust Speed -    
Visibility 6 miles    
Events Snow    
Averages and records for this station are not official NWS values.
T = Trace of Precipitation, MM = Missing Value Source: NWS Daily Summary

Daily Weather History Graph

Daily Weather History Graph

Search for Another Location

Airport or City:

Trip Planner

Search our weather history database for the weather conditions in past years. The results will help you decide how hot, cold, wet, or windy it might be!

Date:

Astronomy

Nov. 05, 2012 Rise Set
Actual Time 8:27 AM AKST 4:22 PM AKST
Civil Twilight 7:37 AM AKST 5:12 PM AKST
Nautical Twilight 6:43 AM AKST 6:06 PM AKST
Astronomical Twilight 5:51 AM AKST 6:58 PM AKST
Moon 10:14 PM AKST (11/5) 1:53 PM AKST (11/5)
Length of Visible Light 9h 35m
Length of Day
7h 54m
Waning Gibbous, 61% of the Moon is Illuminated
Nov 5
Waning Gibbous
Nov 6
Last Quarter
Nov 13
New
Nov 20
First Quarter
Nov 28
Full

Hourly Weather History & Observations

Time (AKST) Temp. Windchill Dew Point Humidity Pressure Visibility Wind Dir Wind Speed Gust Speed Precip Events Conditions
12:53 AM 6.1 °F -0.9 °F 3.0 °F 87% 29.59 in 10.0 mi NNE 3.5 mph - N/A   Overcast
1:53 AM 8.1 °F -0.5 °F 3.9 °F 83% 29.61 in 10.0 mi North 4.6 mph - N/A   Overcast
3:53 AM 8.1 °F - 5.0 °F 87% 29.65 in 10.0 mi Calm Calm - N/A   Overcast
4:53 AM 8.1 °F - 5.0 °F 87% 29.67 in 10.0 mi Calm Calm - N/A   Overcast
5:53 AM 7.0 °F - 3.9 °F 87% 29.69 in 10.0 mi Calm Calm - N/A   Overcast
5:56 AM 6.8 °F -0.1 °F 3.2 °F 85% 29.54 in 10.0 mi ESE 3.5 mph - N/A   Overcast
6:53 AM 7.0 °F - 3.9 °F 87% 29.71 in 10.0 mi Calm Calm - N/A   Overcast
7:53 AM 8.1 °F - 5.0 °F 87% 29.73 in 10.0 mi Calm Calm - N/A   Overcast
8:53 AM 9.0 °F - 6.1 °F 88% 29.73 in 10.0 mi Calm Calm - N/A   Overcast
9:53 AM 9.0 °F - 6.1 °F 88% 29.76 in 9.0 mi Calm Calm - 0.00 in Snow Light Snow
10:26 AM 10.4 °F - 6.8 °F 85% 29.61 in 1.0 mi Calm Calm - 0.01 in Snow Light Snow
10:53 AM 10.0 °F - 7.0 °F 87% 29.78 in 1.0 mi Calm Calm - 0.02 in Snow Light Snow
11:53 AM 10.9 °F - 8.1 °F 88% 29.80 in 2.0 mi Calm Calm - 0.02 in Snow Light Snow
12:30 PM 12.2 °F - 8.6 °F 85% 29.65 in 5.0 mi Calm Calm - 0.00 in Snow Light Snow
12:53 PM 12.9 °F - 9.0 °F 84% 29.81 in 3.0 mi Calm Calm - 0.01 in Snow Light Snow
1:53 PM 15.1 °F - 10.0 °F 80% 29.81 in 5.0 mi Calm Calm - 0.01 in Snow Light Snow
2:53 PM 15.1 °F - 10.0 °F 80% 29.82 in 10.0 mi Calm Calm - 0.00 in   Overcast
3:53 PM 15.1 °F - 10.9 °F 84% 29.83 in 7.0 mi Calm Calm - 0.00 in Snow Light Snow
4:53 PM 14.0 °F 6.5 °F 10.0 °F 84% 29.86 in 10.0 mi North 4.6 mph - 0.00 in   Overcast
5:53 PM 14.0 °F 5.1 °F 9.0 °F 80% 29.87 in 10.0 mi NNW 5.8 mph - N/A   Overcast
6:53 PM 12.9 °F 2.6 °F 9.0 °F 84% 29.90 in 10.0 mi North 6.9 mph - N/A   Overcast
7:53 PM 12.9 °F 5.2 °F 8.1 °F 81% 29.92 in 10.0 mi NNW 4.6 mph - 0.00 in Snow Light Snow
8:43 PM 12.2 °F 4.3 °F 8.6 °F 85% 29.79 in 2.0 mi NNW 4.6 mph - 0.01 in Snow Light Snow
8:53 PM 12.0 °F 5.9 °F 8.1 °F 84% 29.94 in 3.0 mi NNW 3.5 mph - 0.01 in Snow Light Snow
9:18 PM 12.2 °F 4.3 °F 8.6 °F 85% 29.80 in 5.0 mi NW 4.6 mph - 0.00 in Snow Light Snow
9:27 PM 12.2 °F 6.1 °F 8.6 °F 85% 29.79 in 5.0 mi NNW 3.5 mph - 0.00 in Snow Light Snow
9:53 PM 12.0 °F 5.9 °F 8.1 °F 84% 29.95 in 4.0 mi NNW 3.5 mph - 0.01 in Snow Light Snow
10:11 PM 12.2 °F 6.1 °F 8.6 °F 85% 29.80 in 2.5 mi NNW 3.5 mph - 0.00 in Snow Light Snow
10:24 PM 12.2 °F 4.3 °F 8.6 °F 85% 29.81 in 2.0 mi NNW 4.6 mph - 0.00 in Snow Light Snow
10:40 PM 12.2 °F 4.3 °F 8.6 °F 85% 29.81 in 3.0 mi NNW 4.6 mph - 0.00 in Snow Light Snow
10:53 PM 12.0 °F 2.7 °F 9.0 °F 88% 29.96 in 3.0 mi NNW 5.8 mph - 0.01 in Snow Light Snow
11:09 PM 12.2 °F 6.1 °F 8.6 °F 85% 29.82 in 2.0 mi NNW 3.5 mph - 0.00 in Snow Light Snow
11:22 PM 12.2 °F 4.3 °F 8.6 °F 85% 29.83 in 1.8 mi North 4.6 mph - 0.00 in Snow Light Snow
11:48 PM 12.2 °F 0.7 °F 8.6 °F 85% 29.83 in 2.0 mi North 8.1 mph - 0.01 in Snow Light Snow
11:53 PM 12.0 °F 2.7 °F 9.0 °F 88% 29.98 in 2.0 mi North 5.8 mph - 0.01 in Snow Light Snow